DELTA 1 DEB, 10762

Orbit data source: Space-Track

DELTA 1 DEB, 10762 is space debris in LEO originally from a launch on Thu, 29 Jul 1976 UTC launched from the Air Force Western Test Range (AFWTR). Debris objects in space refer to the collection of defunct objects orbiting the Earth. Examples of debris include non-operational satellites, rocket bodies, and fragments generated from explosions, collisions, or faulty payload assembly.

Loading next visibility...
Identifier
10762, 1976-077BK
Orbit
LEO
Country
Flag of USUS
Related business
Manufacturer
Unknown
Mission
Spacecraft
Bus & Motor
Unknown
Mass
Unknown
Launch date (UTC)
1976-07-29 (50 years ago)
Launch vehicle
Unknown
Launch site
Air Force Western Test Range (AFWTR)
Object type
Payload
Rocket body
Debris
Shape & HBR
Unknown shape, 0.5 m
Radar Cross Section
Medium (>0.1 m² and <1 m²)

Expand to show TLE details & history
Last TLE update: 2 days ago

TLE from 2 days ago
0 DELTA 1 DEB
1 10762U 76077BK  26171.47950850  .00000505  00000-0  64860-2 0  9994
2 10762 102.5909 248.3192 0563637 308.8426  46.3561 11.69648788595095
Epoch: 2026-06-20T11:30Z
TLE epoch observation values (Epoch: 2026-06-20T11:30:29.534Z)
Latitude
-0.00004°
Longitude
167.00261°
Altitude
1,517.64 km
Speed
7.237 km/s
True Right ascension
16h 33m 16s
True Declination
0° 00' 00"
Sunlit
Object was in full shadow at epoch
Visualization orbit readout
Latitude
Unknown
Longitude
Unknown
Altitude
Unknown
Speed
Unknown
Apparent Right ascension
Unknown
Apparent Declination
Unknown
Sunlit
N/A
Visualization observer readout
Local Sidereal Time
01:06:55
Azimuth
Unknown
Elevation
Unknown
Doppler factor
Unknown
Orbital elements
Apogee altitude
2,279.3 km
Perigee altitude
1,355.442 km
Semi-major axis
8,195.508 km
Eccentricity
0.05636
Inclination
102.5909°
RAAN
248.3192°
Arg. of periapsis
308.8426°
True anomaly
51.2623°
Mean anomaly
46.3561°
Eccentric anomaly
48.78541°
Mean motion
2.92536 °/min
Orbital period
123.06 mins
BSTAR
0.006486
Loading maneuver chart data...
Computing Atmospheric mass density...
Loading historical data...
Loading historical data...
Loading historical data...
Loading historical data...
Loading historical data...
Loading historical data...
Loading historical data...

Documentation

Showing up to 5 results
|